グリグ-シェレルップ彗星

26P/Grigg-Skjellerup (2002)

English version
Home page
Updated on August 20, 2000

---------------------------------------------------------------------

・ プロフィール

・ 軌道要素

Epoch 2002 Nov. 22.0 TT = JDT 2452600.5  
T 2002 Nov. 29.71893 TT                                 Muraoka 
q   1.1178755            (2000.0)            P               Q
n   0.18562163     Peri.    1.62390     -0.83631606     +0.51045835
a   3.0435726      Node   211.73980     -0.50719620     -0.85888208
e   0.6327094      Incl.   22.34729     -0.20815249     +0.04187898
P   5.31
From 184 observations 1961-1997, mean residual 0".86.
Nongravitational
   parameters A1 = 0.00 +/- 0.00, A2 = -0.0011 +/- 0.0000.

・ 星図

・ 光度変化

        m1 = 15.0 + 5 logΔ + 10.0 log r  [   ,-45]  (              〜2002年10月15日)
        m1 = 12.0 + 5 logΔ + 40.0 log r  [-45, 45]  (2002年10月15日〜2003年 1月13日)
        m1 = 15.0 + 5 logΔ + 10.0 log r  [ 45,   ]  (2003年 1月13日〜               )

---------------------------------------------------------------------

軌道要素は村岡健治氏の計算によるものです。
星図は StellaNavigator Ver.2.0 for Windows (アストロアーツ 編著 / アスキー出版局刊) で作成したものです。
光度グラフはComet for Windowsで作成したものです。

---------------------------------------------------------------------

Copyright(C) Seiichi Yoshida (comet@aerith.net). All rights reserved.